Time,TemperatureF,DewpointF,PressureIn,WindDirection,WindDirectionDegrees,WindSpeedMPH,WindSpeedGustMPH,Humidity,HourlyPrecipIn,Conditions,Clouds,dailyrainin,SoftwareType,DateUTC
2013-03-16 00:00:00,40.6,28.2,29.70,SSW,202,2.3,2.3,61,0.00,CLR,,0.00,WeatherDisplay:10.37,2013-03-16 04:00:00,
2013-03-16 00:05:00,40.3,27.5,29.70,South,180,2.3,2.3,60,0.00,CLR,,0.00,WeatherDisplay:10.37,2013-03-16 04:05:00,
2013-03-16 00:10:00,40.3,27.5,29.71,NW,315,1.1,1.1,60,0.00,CLR,,0.00,WeatherDisplay:10.37,2013-03-16 04:10:00,
2013-03-16 00:15:00,40.1,27.3,29.70,NW,315,2.3,2.3,60,0.00,CLR,,0.00,WeatherDisplay:10.37,2013-03-16 04:15:00,
2013-03-16 00:20:00,39.9,27.1,29.70,WSW,248,1.6,1.6,60,0.00,CLR,,0.00,WeatherDisplay:10.37,2013-03-16 04:20:00,
2013-03-16 00:25:00,39.9,27.1,29.70,WSW,248,2.3,2.3,60,0.00,CLR,,0.00,WeatherDisplay:10.37,2013-03-16 04:25:00,
2013-03-16 00:30:00,39.7,27.0,29.70,WSW,248,3.5,3.5,60,0.00,CLR,,0.00,WeatherDisplay:10.37,2013-03-16 04:30:00,
2013-03-16 00:35:00,39.9,26.7,29.70,WNW,292,2.3,2.3,59,0.00,CLR,,0.00,WeatherDisplay:10.37,2013-03-16 04:35:00,
2013-03-16 00:40:00,39.7,26.6,29.70,SW,225,3.5,3.5,59,0.00,CLR,,0.00,WeatherDisplay:10.37,2013-03-16 04:40:00,
2013-03-16 00:45:00,39.6,26.4,29.70,West,270,2.3,2.3,59,0.00,CLR,,0.00,WeatherDisplay:10.37,2013-03-16 04:45:00,
2013-03-16 00:50:00,39.4,26.2,29.69,WSW,248,2.3,2.3,59,0.00,CLR,,0.00,WeatherDisplay:10.37,2013-03-16 04:50:00,
2013-03-16 00:55:00,39.2,26.1,29.69,NW,315,2.4,2.4,59,0.00,CLR,,0.00,WeatherDisplay:10.37,2013-03-16 04:55:00,
2013-03-16 01:00:00,39.2,25.6,29.69,West,270,4.6,4.6,58,0.00,CLR,,0.00,WeatherDisplay:10.37,2013-03-16 05:00:00,
2013-03-16 01:05:00,39.2,25.6,29.69,West,270,2.3,2.3,58,0.00,CLR,,0.00,WeatherDisplay:10.37,2013-03-16 05:05:00,
2013-03-16 01:10:00,39.0,25.5,29.70,WNW,292,2.3,2.3,58,0.00,CLR,,0.00,WeatherDisplay:10.37,2013-03-16 05:10:00,
2013-03-16 01:15:00,39.0,25.1,29.70,NNW,338,1.1,1.1,57,0.00,CLR,,0.00,WeatherDisplay:10.37,2013-03-16 05:15:00,
2013-03-16 01:20:00,38.8,24.9,29.70,NNW,338,1.1,1.1,57,0.00,CLR,,0.00,WeatherDisplay:10.37,2013-03-16 05:20:00,
2013-03-16 01:25:00,38.8,24.9,29.69,NNW,338,2.3,2.3,57,0.00,CLR,,0.00,WeatherDisplay:10.37,2013-03-16 05:25:00,
2013-03-16 01:30:00,38.7,24.7,29.69,West,270,1.1,1.1,57,0.00,CLR,,0.00,WeatherDisplay:10.37,2013-03-16 05:30:00,
2013-03-16 01:35:00,38.7,24.7,29.69,NNW,338,1.1,1.1,57,0.00,CLR,,0.00,WeatherDisplay:10.37,2013-03-16 05:35:00,
2013-03-16 01:40:00,38.5,24.6,29.69,WSW,248,1.1,1.1,57,0.00,CLR,,0.00,WeatherDisplay:10.37,2013-03-16 05:40:00,
2013-03-16 01:45:00,38.3,24.4,29.70,North,0,1.8,1.8,57,0.00,CLR,,0.00,WeatherDisplay:10.37,2013-03-16 05:45:00,
2013-03-16 01:50:00,37.9,24.5,29.70,West,270,1.8,1.8,58,0.00,CLR,,0.00,WeatherDisplay:10.37,2013-03-16 05:50:00,
2013-03-16 01:55:00,37.8,24.3,29.70,ENE,68,1.1,1.1,58,0.00,CLR,,0.00,WeatherDisplay:10.37,2013-03-16 05:55:00,
2013-03-16 02:00:00,37.8,24.3,29.70,NNW,338,0.0,0.0,58,0.00,CLR,,0.00,WeatherDisplay:10.37,2013-03-16 06:00:00,
2013-03-16 02:05:00,37.4,24.0,29.70,ENE,68,1.1,1.1,58,0.00,CLR,,0.00,WeatherDisplay:10.37,2013-03-16 06:05:00,
2013-03-16 02:10:00,37.0,23.6,29.70,WNW,292,0.5,0.5,58,0.00,CLR,,0.00,WeatherDisplay:10.37,2013-03-16 06:10:00,
2013-03-16 02:15:00,36.9,23.4,29.70,WNW,292,1.1,0.0,58,0.00,CLR,,0.00,WeatherDisplay:10.37,2013-03-16 06:15:00,
2013-03-16 02:20:00,36.9,23.9,29.70,West,270,0.0,0.0,59,0.00,CLR,,0.00,WeatherDisplay:10.37,2013-03-16 06:20:00,
2013-03-16 02:25:00,36.5,23.5,29.70,West,270,1.1,1.1,59,0.00,CLR,,0.00,WeatherDisplay:10.37,2013-03-16 06:25:00,
2013-03-16 02:30:00,36.5,23.5,29.70,WNW,292,1.1,1.1,59,0.00,CLR,,0.00,WeatherDisplay:10.37,2013-03-16 06:30:00,
2013-03-16 02:35:00,36.3,23.3,29.70,North,0,1.1,0.0,59,0.00,CLR,,0.00,WeatherDisplay:10.37,2013-03-16 06:35:00,
2013-03-16 02:40:00,36.5,23.5,29.70,WNW,292,1.1,1.1,59,0.00,CLR,,0.00,WeatherDisplay:10.37,2013-03-16 06:40:00,
2013-03-16 02:45:00,36.3,23.3,29.71,NNW,338,1.1,1.1,59,0.00,CLR,,0.00,WeatherDisplay:10.37,2013-03-16 06:45:00,
2013-03-16 02:50:00,36.3,23.3,29.71,WNW,292,1.1,1.6,59,0.00,CLR,,0.00,WeatherDisplay:10.37,2013-03-16 06:50:00,
2013-03-16 02:55:00,36.3,23.3,29.71,SW,225,0.0,0.0,59,0.00,CLR,,0.00,WeatherDisplay:10.37,2013-03-16 06:55:00,
2013-03-16 03:00:00,36.1,23.2,29.71,West,270,2.3,2.3,59,0.00,CLR,,0.00,WeatherDisplay:10.37,2013-03-16 07:00:00,
2013-03-16 03:05:00,36.3,23.3,29.71,WNW,292,1.1,1.1,59,0.00,CLR,,0.00,WeatherDisplay:10.37,2013-03-16 07:05:00,
2013-03-16 03:10:00,36.3,23.3,29.71,WNW,292,1.1,1.1,59,0.00,CLR,,0.00,WeatherDisplay:10.37,2013-03-16 07:10:00,
2013-03-16 03:15:00,36.3,23.3,29.71,WNW,292,0.0,0.0,59,0.00,CLR,,0.00,WeatherDisplay:10.37,2013-03-16 07:15:00,
2013-03-16 03:20:00,36.0,23.0,29.71,SSW,202,0.0,0.0,59,0.00,CLR,,0.00,WeatherDisplay:10.37,2013-03-16 07:20:00,
2013-03-16 03:25:00,35.6,22.7,29.71,SSW,202,0.5,0.5,59,0.00,CLR,,0.00,WeatherDisplay:10.37,2013-03-16 07:25:00,
2013-03-16 03:30:00,35.2,22.7,29.71,SW,225,0.0,0.2,60,0.00,CLR,,0.00,WeatherDisplay:10.37,2013-03-16 07:30:00,
2013-03-16 03:35:00,34.9,22.0,29.72,WSW,248,0.0,0.0,59,0.00,CLR,,0.00,WeatherDisplay:10.37,2013-03-16 07:35:00,
2013-03-16 03:40:00,34.5,21.7,29.71,SSW,202,0.5,0.5,59,0.00,CLR,,0.00,WeatherDisplay:10.37,2013-03-16 07:40:00,
2013-03-16 03:45:00,34.2,21.7,29.71,WSW,248,0.0,0.0,60,0.00,CLR,,0.00,WeatherDisplay:10.37,2013-03-16 07:45:00,
2013-03-16 03:50:00,34.2,21.7,29.71,WSW,248,0.0,0.0,60,0.00,CLR,,0.00,WeatherDisplay:10.37,2013-03-16 07:50:00,
2013-03-16 03:55:00,33.8,21.8,29.71,East,90,0.0,0.0,61,0.00,CLR,,0.00,WeatherDisplay:10.37,2013-03-16 07:55:00,
2013-03-16 04:00:00,33.4,21.4,29.71,NNE,22,0.0,0.0,61,0.00,CLR,,0.00,WeatherDisplay:10.37,2013-03-16 08:00:00,
2013-03-16 04:05:00,33.4,21.8,29.71,NNE,22,0.0,0.0,62,0.00,CLR,,0.00,WeatherDisplay:10.37,2013-03-16 08:05:00,
2013-03-16 04:10:00,33.4,21.8,29.72,NNE,22,0.0,0.0,62,0.00,CLR,,0.00,WeatherDisplay:10.37,2013-03-16 08:10:00,
2013-03-16 04:15:00,33.4,21.8,29.71,NNE,22,0.0,0.0,62,0.00,CLR,,0.00,WeatherDisplay:10.37,2013-03-16 08:15:00,
2013-03-16 04:20:00,33.4,21.8,29.71,NNE,22,0.7,0.7,62,0.00,CLR,,0.00,WeatherDisplay:10.37,2013-03-16 08:20:00,
2013-03-16 04:25:00,33.6,22.0,29.72,North,0,0.0,0.0,62,0.00,CLR,,0.00,WeatherDisplay:10.37,2013-03-16 08:25:00,
2013-03-16 04:30:00,33.8,22.1,29.72,East,90,0.0,0.5,62,0.00,CLR,,0.00,WeatherDisplay:10.37,2013-03-16 08:30:00,
2013-03-16 04:35:00,33.8,22.1,29.72,East,90,0.0,0.0,62,0.00,CLR,,0.00,WeatherDisplay:10.37,2013-03-16 08:35:00,
2013-03-16 04:40:00,33.8,22.1,29.72,East,90,0.2,0.2,62,0.00,CLR,,0.00,WeatherDisplay:10.37,2013-03-16 08:40:00,
2013-03-16 04:45:00,33.6,22.0,29.72,NNE,22,0.0,0.0,62,0.00,CLR,,0.00,WeatherDisplay:10.37,2013-03-16 08:45:00,
2013-03-16 04:50:00,33.4,21.8,29.72,NNW,338,0.0,0.0,62,0.00,CLR,,0.00,WeatherDisplay:10.37,2013-03-16 08:50:00,
2013-03-16 04:55:00,33.4,22.2,29.72,ENE,68,0.5,0.5,63,0.00,CLR,,0.00,WeatherDisplay:10.37,2013-03-16 08:55:00,
2013-03-16 05:00:00,33.4,22.2,29.72,ENE,68,0.0,0.0,63,0.00,CLR,,0.00,WeatherDisplay:10.37,2013-03-16 09:00:00,
2013-03-16 05:05:00,33.3,22.4,29.73,North,0,1.1,1.1,64,0.00,CLR,,0.00,WeatherDisplay:10.37,2013-03-16 09:05:00,
2013-03-16 05:11:00,33.6,22.4,29.73,ESE,112,1.1,1.1,63,0.00,CLR,,0.00,WeatherDisplay:10.37,2013-03-16 09:11:00,
2013-03-16 05:16:00,34.2,22.5,29.73,SSW,202,2.3,2.3,62,0.00,CLR,,0.00,WeatherDisplay:10.37,2013-03-16 09:16:00,
2013-03-16 05:21:00,34.3,21.9,29.73,NNE,22,1.1,1.1,60,0.00,CLR,,0.00,WeatherDisplay:10.37,2013-03-16 09:21:00,
2013-03-16 05:26:00,34.5,22.1,29.73,NNE,22,1.1,1.1,60,0.00,CLR,,0.00,WeatherDisplay:10.37,2013-03-16 09:26:00,
2013-03-16 05:31:00,34.5,21.7,29.73,NE,45,1.1,1.1,59,0.00,CLR,,0.00,WeatherDisplay:10.37,2013-03-16 09:31:00,
2013-03-16 05:36:00,34.3,21.5,29.73,WNW,292,1.1,1.1,59,0.00,CLR,,0.00,WeatherDisplay:10.37,2013-03-16 09:36:00,
2013-03-16 05:41:00,34.2,21.3,29.74,WNW,292,1.1,1.1,59,0.00,CLR,,0.00,WeatherDisplay:10.37,2013-03-16 09:41:00,
2013-03-16 05:46:00,34.0,21.1,29.74,West,270,1.1,1.1,59,0.00,CLR,,0.00,WeatherDisplay:10.37,2013-03-16 09:46:00,
2013-03-16 05:51:00,34.0,21.1,29.74,NW,315,1.1,1.1,59,0.00,CLR,,0.00,WeatherDisplay:10.37,2013-03-16 09:51:00,
2013-03-16 05:56:00,33.8,21.0,29.74,West,270,0.0,0.0,59,0.00,CLR,,0.00,WeatherDisplay:10.37,2013-03-16 09:56:00,
2013-03-16 06:01:00,33.8,21.0,29.74,NE,45,0.2,0.2,59,0.00,CLR,,0.00,WeatherDisplay:10.37,2013-03-16 10:01:00,
2013-03-16 06:07:00,33.8,21.0,29.74,ESE,112,0.0,0.0,59,0.00,CLR,,0.00,WeatherDisplay:10.37,2013-03-16 10:07:00,
2013-03-16 06:12:00,33.4,20.6,29.74,ESE,112,0.0,0.0,59,0.00,CLR,,0.00,WeatherDisplay:10.37,2013-03-16 10:12:00,
2013-03-16 06:17:00,33.3,20.9,29.74,ESE,112,0.0,0.0,60,0.00,CLR,,0.00,WeatherDisplay:10.37,2013-03-16 10:17:00,
2013-03-16 06:22:00,33.1,20.7,29.74,North,0,0.0,0.2,60,0.00,CLR,,0.00,WeatherDisplay:10.37,2013-03-16 10:22:00,
2013-03-16 06:27:00,33.1,20.7,29.74,NW,315,0.0,0.0,60,0.00,CLR,,0.00,WeatherDisplay:10.37,2013-03-16 10:27:00,
2013-03-16 06:32:00,33.1,20.7,29.75,SSW,202,0.0,0.0,60,0.00,CLR,,0.00,WeatherDisplay:10.37,2013-03-16 10:32:00,
2013-03-16 06:37:00,32.7,20.4,29.74,SSW,202,0.0,0.0,60,0.00,CLR,,0.00,WeatherDisplay:10.37,2013-03-16 10:37:00,
2013-03-16 06:42:00,32.5,20.6,29.74,SSW,202,0.0,0.0,61,0.00,CLR,,0.00,WeatherDisplay:10.37,2013-03-16 10:42:00,
2013-03-16 06:47:00,32.2,20.2,29.75,SSW,202,0.0,0.0,61,0.00,CLR,,0.00,WeatherDisplay:10.37,2013-03-16 10:47:00,
2013-03-16 06:52:00,32.0,20.4,29.75,SE,135,0.0,0.0,62,0.00,CLR,,0.00,WeatherDisplay:10.37,2013-03-16 10:52:00,
2013-03-16 06:57:00,31.6,20.1,29.75,ESE,112,0.0,0.0,62,0.00,CLR,,0.00,WeatherDisplay:10.37,2013-03-16 10:57:00,
2013-03-16 07:02:00,31.5,20.3,29.75,ESE,112,0.0,0.0,63,0.00,CLR,,0.00,WeatherDisplay:10.37,2013-03-16 11:02:00,
2013-03-16 07:07:00,31.3,20.1,29.75,ESE,112,1.1,1.1,63,0.00,CLR,,0.00,WeatherDisplay:10.37,2013-03-16 11:07:00,
2013-03-16 07:12:00,31.3,20.5,29.75,ESE,112,1.1,1.1,64,0.00,CLR,,0.00,WeatherDisplay:10.37,2013-03-16 11:12:00,
2013-03-16 07:17:00,31.3,20.5,29.75,ESE,112,0.2,0.0,64,0.00,CLR,,0.00,WeatherDisplay:10.37,2013-03-16 11:17:00,
2013-03-16 07:22:00,31.3,20.9,29.75,ESE,112,0.0,0.0,65,0.00,CLR,,0.00,WeatherDisplay:10.37,2013-03-16 11:22:00,
2013-03-16 07:28:00,31.5,21.0,29.76,ESE,112,0.0,0.0,65,0.00,CLR,,0.00,WeatherDisplay:10.37,2013-03-16 11:28:00,
2013-03-16 07:33:00,31.6,21.2,29.76,East,90,0.0,0.0,65,0.00,CLR,,0.00,WeatherDisplay:10.37,2013-03-16 11:33:00,
2013-03-16 07:38:00,31.6,21.2,29.76,East,90,0.0,0.0,65,0.00,CLR,,0.00,WeatherDisplay:10.37,2013-03-16 11:38:00,
2013-03-16 07:43:00,31.5,21.0,29.76,East,90,0.0,0.0,65,0.00,CLR,,0.00,WeatherDisplay:10.37,2013-03-16 11:43:00,
2013-03-16 07:48:00,31.5,21.0,29.76,East,90,0.0,0.0,65,0.00,CLR,,0.00,WeatherDisplay:10.37,2013-03-16 11:48:00,
2013-03-16 07:53:00,31.5,21.0,29.77,East,90,0.0,0.0,65,0.00,CLR,,0.00,WeatherDisplay:10.37,2013-03-16 11:53:00,
2013-03-16 07:58:00,31.5,21.4,29.77,East,90,0.0,0.0,66,0.00,CLR,,0.00,WeatherDisplay:10.37,2013-03-16 11:58:00,
2013-03-16 08:03:00,31.6,21.6,29.77,SE,135,0.0,0.0,66,0.00,CLR,,0.00,WeatherDisplay:10.37,2013-03-16 12:03:00,
2013-03-16 08:08:00,31.8,21.7,29.78,East,90,0.2,0.2,66,0.00,CLR,,0.00,WeatherDisplay:10.37,2013-03-16 12:08:00,
2013-03-16 08:13:00,32.2,22.1,29.78,East,90,0.0,0.0,66,0.00,CLR,,0.00,WeatherDisplay:10.37,2013-03-16 12:13:00,
2013-03-16 08:18:00,32.7,22.6,29.78,NNW,338,0.0,0.0,66,0.00,CLR,,0.00,WeatherDisplay:10.37,2013-03-16 12:18:00,
2013-03-16 08:23:00,33.3,22.8,29.78,North,0,0.2,0.2,65,0.00,CLR,,0.00,WeatherDisplay:10.37,2013-03-16 12:23:00,
2013-03-16 08:28:00,33.8,22.9,29.79,NNE,22,0.5,0.5,64,0.00,CLR,,0.00,WeatherDisplay:10.37,2013-03-16 12:28:00,
2013-03-16 08:33:00,34.2,22.5,29.79,North,0,0.0,0.0,62,0.00,CLR,,0.00,WeatherDisplay:10.37,2013-03-16 12:33:00,
2013-03-16 08:38:00,34.7,23.0,29.78,North,0,0.0,0.2,62,0.00,CLR,,0.00,WeatherDisplay:10.37,2013-03-16 12:38:00,
2013-03-16 08:43:00,35.1,23.0,29.79,SW,225,0.0,0.0,61,0.00,CLR,,0.00,WeatherDisplay:10.37,2013-03-16 12:43:00,
2013-03-16 08:48:00,35.4,21.7,29.78,NNW,338,1.1,1.1,57,0.00,CLR,,0.00,WeatherDisplay:10.37,2013-03-16 12:48:00,
2013-03-16 08:53:00,35.4,22.1,29.79,SW,225,2.3,2.3,58,0.00,CLR,,0.00,WeatherDisplay:10.37,2013-03-16 12:53:00,
2013-03-16 08:58:00,35.6,22.3,29.79,NE,45,1.1,1.1,58,0.00,CLR,,0.00,WeatherDisplay:10.37,2013-03-16 12:58:00,
2013-03-16 09:03:00,35.6,21.4,29.79,North,0,1.1,1.1,56,0.00,CLR,,0.00,WeatherDisplay:10.37,2013-03-16 13:03:00,
2013-03-16 09:08:00,35.6,21.9,29.79,ESE,112,1.4,1.4,57,0.00,CLR,,0.00,WeatherDisplay:10.37,2013-03-16 13:08:00,
2013-03-16 09:13:00,35.8,21.6,29.79,ESE,112,2.3,2.3,56,0.00,CLR,,0.00,WeatherDisplay:10.37,2013-03-16 13:13:00,
2013-03-16 09:18:00,35.8,22.0,29.79,ENE,68,1.1,1.1,57,0.00,CLR,,0.00,WeatherDisplay:10.37,2013-03-16 13:18:00,
2013-03-16 09:23:00,36.1,22.4,29.78,East,90,1.1,1.1,57,0.00,CLR,,0.00,WeatherDisplay:10.37,2013-03-16 13:23:00,
2013-03-16 09:28:00,36.5,22.3,29.78,ESE,112,2.3,2.3,56,0.00,CLR,,0.00,WeatherDisplay:10.37,2013-03-16 13:28:00,
2013-03-16 09:33:00,36.7,22.4,29.77,NNW,338,1.1,1.1,56,0.00,CLR,,0.00,WeatherDisplay:10.37,2013-03-16 13:33:00,
2013-03-16 09:38:00,36.5,22.3,29.77,ENE,68,1.1,1.1,56,0.00,CLR,,0.00,WeatherDisplay:10.37,2013-03-16 13:38:00,
2013-03-16 09:43:00,36.3,22.1,29.77,SSE,158,1.1,1.1,56,0.00,CLR,,0.00,WeatherDisplay:10.37,2013-03-16 13:43:00,
2013-03-16 09:48:00,36.3,22.1,29.77,North,0,2.4,2.4,56,0.00,CLR,,0.00,WeatherDisplay:10.37,2013-03-16 13:48:00,
2013-03-16 09:53:00,36.3,22.1,29.77,South,180,1.1,1.1,56,0.00,CLR,,0.00,WeatherDisplay:10.37,2013-03-16 13:53:00,
2013-03-16 09:58:00,36.5,22.3,29.77,ESE,112,1.1,1.1,56,0.00,CLR,,0.00,WeatherDisplay:10.37,2013-03-16 13:58:00,
2013-03-16 10:03:00,36.5,22.3,29.77,ENE,68,2.3,2.3,56,0.00,CLR,,0.00,WeatherDisplay:10.37,2013-03-16 14:03:00,
2013-03-16 10:08:00,36.3,22.5,29.77,North,0,1.8,1.8,57,0.00,CLR,,0.00,WeatherDisplay:10.37,2013-03-16 14:08:00,
2013-03-16 10:13:00,36.7,22.9,29.77,ENE,68,2.3,2.3,57,0.00,CLR,,0.00,WeatherDisplay:10.37,2013-03-16 14:13:00,
2013-03-16 10:18:00,36.9,23.0,29.77,NE,45,2.3,2.3,57,0.00,CLR,,0.00,WeatherDisplay:10.37,2013-03-16 14:18:00,
2013-03-16 10:23:00,37.0,23.2,29.77,WSW,248,1.1,1.1,57,0.00,CLR,,0.00,WeatherDisplay:10.37,2013-03-16 14:23:00,
2013-03-16 10:28:00,37.0,23.2,29.77,East,90,2.3,2.3,57,0.00,CLR,,0.00,WeatherDisplay:10.37,2013-03-16 14:28:00,
2013-03-16 10:33:00,37.0,23.2,29.77,North,0,1.1,0.0,57,0.00,CLR,,0.00,WeatherDisplay:10.37,2013-03-16 14:33:00,
2013-03-16 10:38:00,37.4,23.5,29.77,NNW,338,3.5,3.5,57,0.00,CLR,,0.00,WeatherDisplay:10.37,2013-03-16 14:38:00,
2013-03-16 10:43:00,37.4,23.1,29.77,NW,315,0.0,0.0,56,0.00,CLR,,0.00,WeatherDisplay:10.37,2013-03-16 14:43:00,
2013-03-16 10:48:00,37.4,23.1,29.77,NNE,22,2.3,2.3,56,0.00,CLR,,0.00,WeatherDisplay:10.37,2013-03-16 14:48:00,
2013-03-16 10:53:00,37.8,23.0,29.76,ESE,112,2.3,2.3,55,0.00,CLR,,0.00,WeatherDisplay:10.37,2013-03-16 14:53:00,
2013-03-16 10:58:00,37.8,23.5,29.77,ENE,68,3.5,3.5,56,0.00,CLR,,0.00,WeatherDisplay:10.37,2013-03-16 14:58:00,
2013-03-16 11:03:00,38.3,24.4,29.77,NNE,22,2.3,2.3,57,0.00,CLR,,0.00,WeatherDisplay:10.37,2013-03-16 15:03:00,
2013-03-16 11:08:00,38.5,24.1,29.77,NNE,22,1.1,1.1,56,0.00,CLR,,0.00,WeatherDisplay:10.37,2013-03-16 15:08:00,
2013-03-16 11:13:00,38.5,23.7,29.77,North,0,1.1,1.1,55,0.00,CLR,,0.00,WeatherDisplay:10.37,2013-03-16 15:13:00,
2013-03-16 11:18:00,38.7,23.9,29.76,East,90,0.9,0.9,55,0.00,CLR,,0.00,WeatherDisplay:10.37,2013-03-16 15:18:00,
2013-03-16 11:23:00,38.8,24.0,29.77,WSW,248,1.1,1.1,55,0.00,CLR,,0.00,WeatherDisplay:10.37,2013-03-16 15:23:00,
2013-03-16 11:28:00,38.8,23.2,29.77,ENE,68,2.3,2.3,53,0.00,CLR,,0.00,WeatherDisplay:10.37,2013-03-16 15:28:00,
2013-03-16 11:33:00,38.3,22.6,29.77,NE,45,2.3,2.3,53,0.00,CLR,,0.00,WeatherDisplay:10.37,2013-03-16 15:33:00,
2013-03-16 11:38:00,38.3,23.1,29.77,East,90,1.1,1.1,54,0.00,CLR,,0.00,WeatherDisplay:10.37,2013-03-16 15:38:00,
2013-03-16 11:43:00,38.3,23.1,29.77,East,90,0.2,0.2,54,0.00,CLR,,0.00,WeatherDisplay:10.37,2013-03-16 15:43:00,
2013-03-16 11:48:00,38.5,23.3,29.76,NE,45,1.1,1.1,54,0.00,CLR,,0.00,WeatherDisplay:10.37,2013-03-16 15:48:00,
2013-03-16 11:53:00,39.2,24.4,29.76,NE,45,1.1,1.1,55,0.00,CLR,,0.00,WeatherDisplay:10.37,2013-03-16 15:53:00,
2013-03-16 11:58:00,39.9,25.0,29.76,SE,135,1.1,1.1,55,0.00,CLR,,0.00,WeatherDisplay:10.37,2013-03-16 15:58:00,
2013-03-16 12:03:00,40.5,25.1,29.75,ENE,68,1.1,1.1,54,0.00,CLR,,0.00,WeatherDisplay:10.37,2013-03-16 16:03:00,
2013-03-16 12:08:00,40.5,25.1,29.75,ENE,68,1.1,1.1,54,0.00,CLR,,0.00,WeatherDisplay:10.37,2013-03-16 16:08:00,
2013-03-16 12:13:00,40.8,25.4,29.75,ESE,112,1.1,1.1,54,0.00,CLR,,0.00,WeatherDisplay:10.37,2013-03-16 16:13:00,
2013-03-16 12:18:00,40.8,25.0,29.74,SSW,202,1.1,1.1,53,0.00,CLR,,0.00,WeatherDisplay:10.37,2013-03-16 16:18:00,
2013-03-16 12:23:00,41.0,25.6,29.74,West,270,1.1,1.1,54,0.00,CLR,,0.00,WeatherDisplay:10.37,2013-03-16 16:23:00,
2013-03-16 12:28:00,41.5,25.7,29.74,SSW,202,2.3,2.3,53,0.00,CLR,,0.00,WeatherDisplay:10.37,2013-03-16 16:28:00,
2013-03-16 12:33:00,42.1,26.2,29.74,NE,45,1.1,1.1,53,0.00,CLR,,0.00,WeatherDisplay:10.37,2013-03-16 16:33:00,
2013-03-16 12:38:00,42.1,26.2,29.74,SE,135,1.1,1.1,53,0.00,CLR,,0.00,WeatherDisplay:10.37,2013-03-16 16:38:00,
2013-03-16 12:43:00,42.3,26.3,29.74,South,180,2.4,2.4,53,0.00,CLR,,0.00,WeatherDisplay:10.37,2013-03-16 16:43:00,
2013-03-16 12:48:00,42.3,25.9,29.74,WSW,248,3.5,3.5,52,0.00,CLR,,0.00,WeatherDisplay:10.37,2013-03-16 16:48:00,
2013-03-16 12:53:00,41.5,25.2,29.74,SSW,202,2.3,2.3,52,0.00,CLR,,0.00,WeatherDisplay:10.37,2013-03-16 16:53:00,
2013-03-16 12:58:00,41.5,25.7,29.74,West,270,2.3,2.3,53,0.00,CLR,,0.00,WeatherDisplay:10.37,2013-03-16 16:58:00,
2013-03-16 13:03:00,41.2,24.9,29.74,SW,225,2.3,2.3,52,0.00,CLR,,0.00,WeatherDisplay:10.37,2013-03-16 17:03:00,
2013-03-16 13:08:00,41.0,25.2,29.74,SW,225,3.5,3.5,53,0.00,CLR,,0.00,WeatherDisplay:10.37,2013-03-16 17:08:00,
2013-03-16 13:13:00,40.6,24.8,29.74,SSE,158,2.4,2.4,53,0.00,CLR,,0.00,WeatherDisplay:10.37,2013-03-16 17:13:00,
2013-03-16 13:18:00,40.1,24.3,29.74,WSW,248,0.2,0.2,53,0.00,CLR,,0.00,WeatherDisplay:10.37,2013-03-16 17:18:00,
2013-03-16 13:23:00,39.9,24.6,29.74,West,270,1.1,1.1,54,0.00,CLR,,0.00,WeatherDisplay:10.37,2013-03-16 17:23:00,
2013-03-16 13:28:00,39.6,25.1,29.74,North,0,2.3,2.3,56,0.00,CLR,,0.00,WeatherDisplay:10.37,2013-03-16 17:28:00,
2013-03-16 13:33:00,39.2,25.2,29.74,SSW,202,1.6,1.6,57,0.00,CLR,,0.00,WeatherDisplay:10.37,2013-03-16 17:33:00,
2013-03-16 13:38:00,39.0,25.5,29.74,WSW,248,1.1,1.1,58,0.00,CLR,,0.00,WeatherDisplay:10.37,2013-03-16 17:38:00,
2013-03-16 13:43:00,38.5,25.8,29.74,NW,315,0.5,0.5,60,0.00,CLR,,0.00,WeatherDisplay:10.37,2013-03-16 17:43:00,
2013-03-16 13:48:00,38.1,25.8,29.73,West,270,0.5,0.5,61,0.00,CLR,,0.00,WeatherDisplay:10.37,2013-03-16 17:48:00,
2013-03-16 13:53:00,37.8,25.9,29.74,WSW,248,0.0,0.0,62,0.00,CLR,,0.00,WeatherDisplay:10.37,2013-03-16 17:53:00,
2013-03-16 13:58:00,37.4,25.6,29.74,North,0,1.1,0.0,62,0.00,CLR,,0.00,WeatherDisplay:10.37,2013-03-16 17:58:00,
2013-03-16 14:03:00,37.0,25.2,29.74,SE,135,0.2,0.2,62,0.00,CLR,,0.00,WeatherDisplay:10.37,2013-03-16 18:03:00,
2013-03-16 14:08:00,37.2,26.5,29.74,WSW,248,1.1,1.1,65,0.00,CLR,,0.00,WeatherDisplay:10.37,2013-03-16 18:08:00,
2013-03-16 14:13:00,37.0,26.4,29.74,SSE,158,0.0,0.0,65,0.00,CLR,,0.00,WeatherDisplay:10.37,2013-03-16 18:13:00,
2013-03-16 14:18:00,37.0,26.4,29.74,SSW,202,0.0,0.0,65,0.00,CLR,,0.00,WeatherDisplay:10.37,2013-03-16 18:18:00,
2013-03-16 14:23:00,36.7,26.4,29.74,South,180,1.1,1.1,66,0.00,CLR,,0.00,WeatherDisplay:10.37,2013-03-16 18:23:00,
2013-03-16 14:28:00,36.3,26.8,29.75,WNW,292,0.2,0.2,68,0.00,CLR,,0.00,WeatherDisplay:10.37,2013-03-16 18:28:00,
2013-03-16 14:33:00,36.0,26.1,29.74,SSW,202,0.2,0.2,67,0.00,CLR,,0.00,WeatherDisplay:10.37,2013-03-16 18:33:00,
2013-03-16 14:38:00,36.0,26.8,29.74,West,270,0.2,0.2,69,0.00,CLR,,0.00,WeatherDisplay:10.37,2013-03-16 18:38:00,
2013-03-16 14:43:00,36.0,27.1,29.74,ENE,68,0.0,0.7,70,0.00,CLR,,0.00,WeatherDisplay:10.37,2013-03-16 18:43:00,
2013-03-16 14:48:00,35.6,27.5,29.73,North,0,1.1,1.1,72,0.00,CLR,,0.00,WeatherDisplay:10.37,2013-03-16 18:48:00,
2013-03-16 14:53:00,35.6,27.5,29.73,NE,45,1.1,1.1,72,0.00,CLR,,0.00,WeatherDisplay:10.37,2013-03-16 18:53:00,
2013-03-16 14:58:00,35.6,27.5,29.73,WSW,248,0.2,0.2,72,0.01,RA,,0.01,WeatherDisplay:10.37,2013-03-16 18:58:00,
2013-03-16 15:03:00,35.6,27.8,29.72,North,0,0.2,0.2,73,0.01,RA,,0.01,WeatherDisplay:10.37,2013-03-16 19:03:00,
2013-03-16 15:08:00,35.6,28.1,29.72,WNW,292,0.5,0.5,74,0.01,,,0.01,WeatherDisplay:10.37,2013-03-16 19:08:00,
2013-03-16 15:13:00,35.6,28.1,29.71,East,90,0.0,0.0,74,0.01,CLR,,0.02,WeatherDisplay:10.37,2013-03-16 19:13:00,
2013-03-16 15:18:00,35.2,28.1,29.71,NW,315,0.2,0.2,75,0.02,RA,,0.02,WeatherDisplay:10.37,2013-03-16 19:18:00,
2013-03-16 15:23:00,35.4,28.3,29.71,ENE,68,1.1,1.1,75,0.02,RA,,0.02,WeatherDisplay:10.37,2013-03-16 19:23:00,
2013-03-16 15:28:00,35.6,29.1,29.71,NE,45,1.1,0.0,77,0.02,CLR,,0.02,WeatherDisplay:10.37,2013-03-16 19:28:00,
2013-03-16 15:33:00,35.2,28.4,29.72,WSW,248,1.1,1.1,76,0.03,RA,,0.03,WeatherDisplay:10.37,2013-03-16 19:33:00,
2013-03-16 15:38:00,34.9,28.1,29.72,East,90,1.1,1.1,76,0.03,RA,,0.03,WeatherDisplay:10.37,2013-03-16 19:38:00,
2013-03-16 15:43:00,34.7,28.5,29.71,ENE,68,1.1,1.1,78,0.03,CLR,,0.03,WeatherDisplay:10.37,2013-03-16 19:43:00,
2013-03-16 15:48:00,34.5,29.0,29.71,East,90,1.1,0.0,80,0.03,CLR,,0.03,WeatherDisplay:10.37,2013-03-16 19:48:00,
2013-03-16 15:53:00,34.5,29.0,29.71,NNE,22,0.7,0.7,80,0.03,CLR,,0.03,WeatherDisplay:10.37,2013-03-16 19:53:00,
2013-03-16 15:59:00,34.5,29.0,29.71,ENE,68,1.1,1.1,80,0.02,CLR,,0.03,WeatherDisplay:10.37,2013-03-16 19:59:00,
2013-03-16 16:04:00,34.7,29.2,29.70,East,90,1.1,1.1,80,0.02,CLR,,0.03,WeatherDisplay:10.37,2013-03-16 20:04:00,
2013-03-16 16:09:00,34.5,28.7,29.70,NNW,338,0.0,0.0,79,0.02,CLR,,0.03,WeatherDisplay:10.37,2013-03-16 20:09:00,
2013-03-16 16:14:00,34.5,28.7,29.71,NE,45,0.0,0.0,79,0.02,CLR,,0.03,WeatherDisplay:10.37,2013-03-16 20:14:00,
2013-03-16 16:19:00,34.5,28.7,29.71,NW,315,1.1,1.1,79,0.01,CLR,,0.03,WeatherDisplay:10.37,2013-03-16 20:19:00,
2013-03-16 16:24:00,34.3,28.5,29.70,ENE,68,1.1,1.1,79,0.01,CLR,,0.03,WeatherDisplay:10.37,2013-03-16 20:24:00,
2013-03-16 16:29:00,34.5,28.4,29.70,East,90,0.0,0.2,78,0.02,RA,,0.04,WeatherDisplay:10.37,2013-03-16 20:29:00,
2013-03-16 16:34:00,34.5,28.4,29.69,NE,45,1.1,1.1,78,0.01,RA,,0.04,WeatherDisplay:10.37,2013-03-16 20:34:00,
2013-03-16 16:39:00,34.3,28.8,29.70,ESE,112,0.0,0.5,80,0.01,,,0.04,WeatherDisplay:10.37,2013-03-16 20:39:00,
2013-03-16 16:44:00,34.5,28.4,29.70,ENE,68,1.1,1.1,78,0.01,CLR,,0.04,WeatherDisplay:10.37,2013-03-16 20:44:00,
2013-03-16 16:49:00,34.7,28.5,29.69,ENE,68,0.0,0.0,78,0.01,CLR,,0.04,WeatherDisplay:10.37,2013-03-16 20:49:00,
2013-03-16 16:54:00,34.7,28.9,29.70,NE,45,0.2,0.2,79,0.01,CLR,,0.04,WeatherDisplay:10.37,2013-03-16 20:54:00,
2013-03-16 16:59:00,34.7,29.2,29.70,North,0,0.0,0.0,80,0.01,CLR,,0.04,WeatherDisplay:10.37,2013-03-16 20:59:00,
2013-03-16 17:04:00,34.5,28.7,29.70,East,90,0.0,0.0,79,0.01,CLR,,0.04,WeatherDisplay:10.37,2013-03-16 21:04:00,
2013-03-16 17:09:00,34.5,29.0,29.71,NE,45,0.5,0.5,80,0.01,CLR,,0.04,WeatherDisplay:10.37,2013-03-16 21:09:00,
2013-03-16 17:14:00,34.3,28.8,29.70,North,0,0.0,0.0,80,0.01,CLR,,0.04,WeatherDisplay:10.37,2013-03-16 21:14:00,
2013-03-16 17:19:00,34.2,28.6,29.71,ENE,68,0.0,0.0,80,0.01,CLR,,0.04,WeatherDisplay:10.37,2013-03-16 21:19:00,
2013-03-16 17:24:00,34.2,29.2,29.70,East,90,0.2,0.2,82,0.01,CLR,,0.04,WeatherDisplay:10.37,2013-03-16 21:24:00,
2013-03-16 17:29:00,34.2,28.6,29.71,ENE,68,0.5,0.5,80,0.01,RA,,0.05,WeatherDisplay:10.37,2013-03-16 21:29:00,
2013-03-16 17:34:00,34.0,28.5,29.71,West,270,0.0,0.0,80,0.01,RA,,0.05,WeatherDisplay:10.37,2013-03-16 21:34:00,
2013-03-16 17:39:00,34.0,28.5,29.71,East,90,0.5,0.5,80,0.01,CLR,,0.05,WeatherDisplay:10.37,2013-03-16 21:39:00,
2013-03-16 17:44:00,34.0,28.5,29.71,NNW,338,0.0,0.0,80,0.01,CLR,,0.05,WeatherDisplay:10.37,2013-03-16 21:44:00,
2013-03-16 17:49:00,33.8,28.3,29.71,ESE,112,0.5,0.5,80,0.01,CLR,,0.05,WeatherDisplay:10.37,2013-03-16 21:49:00,
2013-03-16 17:54:00,33.8,28.3,29.71,ENE,68,0.0,0.0,80,0.01,CLR,,0.05,WeatherDisplay:10.37,2013-03-16 21:54:00,
2013-03-16 17:59:00,34.0,28.5,29.71,NNW,338,0.0,0.0,80,0.01,CLR,,0.05,WeatherDisplay:10.37,2013-03-16 21:59:00,
2013-03-16 18:04:00,33.8,28.3,29.71,NNE,22,0.0,0.0,80,0.01,CLR,,0.05,WeatherDisplay:10.37,2013-03-16 22:04:00,
2013-03-16 18:09:00,33.6,28.7,29.71,ESE,112,1.1,1.1,82,0.01,CLR,,0.05,WeatherDisplay:10.37,2013-03-16 22:09:00,
2013-03-16 18:14:00,33.4,28.2,29.71,NNW,338,0.2,0.2,81,0.01,CLR,,0.05,WeatherDisplay:10.37,2013-03-16 22:14:00,
2013-03-16 18:19:00,33.4,28.5,29.71,East,90,2.0,2.0,82,0.01,CLR,,0.05,WeatherDisplay:10.37,2013-03-16 22:19:00,
2013-03-16 18:24:00,33.3,28.9,29.71,East,90,2.3,2.3,84,0.01,CLR,,0.05,WeatherDisplay:10.37,2013-03-16 22:24:00,
2013-03-16 18:29:00,33.3,28.9,29.71,ESE,112,0.0,0.0,84,0.00,CLR,,0.05,WeatherDisplay:10.37,2013-03-16 22:29:00,
2013-03-16 18:34:00,33.3,28.9,29.71,ESE,112,1.1,1.1,84,0.00,CLR,,0.05,WeatherDisplay:10.37,2013-03-16 22:34:00,
2013-03-16 18:39:00,32.9,28.6,29.71,SSW,202,1.1,1.1,84,0.00,CLR,,0.05,WeatherDisplay:10.37,2013-03-16 22:39:00,
2013-03-16 18:44:00,32.9,28.9,29.71,ENE,68,0.0,0.0,85,0.00,CLR,,0.05,WeatherDisplay:10.37,2013-03-16 22:44:00,
2013-03-16 18:49:00,32.7,28.4,29.72,East,90,0.5,0.5,84,0.00,CLR,,0.05,WeatherDisplay:10.37,2013-03-16 22:49:00,
2013-03-16 18:54:00,32.7,28.7,29.72,West,270,0.0,0.0,85,0.00,CLR,,0.05,WeatherDisplay:10.37,2013-03-16 22:54:00,
2013-03-16 18:59:00,32.7,28.7,29.72,ESE,112,2.3,2.3,85,0.00,CLR,,0.05,WeatherDisplay:10.37,2013-03-16 22:59:00,
2013-03-16 19:04:00,32.7,28.7,29.73,North,0,1.1,1.1,85,0.00,CLR,,0.05,WeatherDisplay:10.37,2013-03-16 23:04:00,
2013-03-16 19:09:00,32.7,28.4,29.73,NW,315,1.1,1.1,84,0.00,CLR,,0.05,WeatherDisplay:10.37,2013-03-16 23:09:00,
2013-03-16 19:14:00,32.7,28.4,29.73,East,90,2.3,2.3,84,0.00,CLR,,0.05,WeatherDisplay:10.37,2013-03-16 23:14:00,
2013-03-16 19:19:00,32.5,28.2,29.74,ENE,68,0.0,0.0,84,0.00,CLR,,0.05,WeatherDisplay:10.37,2013-03-16 23:19:00,
2013-03-16 19:24:00,32.5,28.5,29.74,ENE,68,1.1,1.1,85,0.00,CLR,,0.05,WeatherDisplay:10.37,2013-03-16 23:24:00,
2013-03-16 19:29:00,32.5,28.8,29.74,East,90,1.1,1.1,86,0.00,CLR,,0.05,WeatherDisplay:10.37,2013-03-16 23:29:00,
2013-03-16 19:34:00,32.5,28.2,29.74,East,90,1.1,1.1,84,0.00,CLR,,0.05,WeatherDisplay:10.37,2013-03-16 23:34:00,
2013-03-16 19:39:00,32.5,28.2,29.74,East,90,1.1,1.1,84,0.00,CLR,,0.05,WeatherDisplay:10.37,2013-03-16 23:39:00,
2013-03-16 19:44:00,32.5,28.5,29.74,East,90,2.3,2.3,85,0.00,CLR,,0.05,WeatherDisplay:10.37,2013-03-16 23:44:00,
2013-03-16 19:49:00,32.5,28.5,29.76,East,90,0.0,0.5,85,0.00,CLR,,0.05,WeatherDisplay:10.37,2013-03-16 23:49:00,
2013-03-16 19:54:00,32.5,28.2,29.76,WSW,248,1.1,0.0,84,0.00,CLR,,0.05,WeatherDisplay:10.37,2013-03-16 23:54:00,
2013-03-16 19:59:00,32.7,28.4,29.76,North,0,0.0,0.0,84,0.00,CLR,,0.05,WeatherDisplay:10.37,2013-03-16 23:59:00,
2013-03-16 20:04:00,32.7,28.4,29.76,North,0,0.2,0.2,84,0.00,CLR,,0.05,WeatherDisplay:10.37,2013-03-17 00:04:00,
2013-03-16 20:09:00,32.7,28.4,29.76,North,0,0.2,0.2,84,0.00,CLR,,0.05,WeatherDisplay:10.37,2013-03-17 00:09:00,
2013-03-16 20:14:00,32.7,28.1,29.76,NNW,338,0.0,0.0,83,0.00,CLR,,0.05,WeatherDisplay:10.37,2013-03-17 00:14:00,
2013-03-16 20:19:00,32.7,28.7,29.76,ENE,68,0.0,0.0,85,0.00,CLR,,0.05,WeatherDisplay:10.37,2013-03-17 00:19:00,
2013-03-16 20:24:00,32.7,28.4,29.76,ESE,112,0.2,0.2,84,0.00,CLR,,0.05,WeatherDisplay:10.37,2013-03-17 00:24:00,
2013-03-16 20:29:00,32.7,28.4,29.76,ESE,112,0.0,0.0,84,0.00,CLR,,0.05,WeatherDisplay:10.37,2013-03-17 00:29:00,
2013-03-16 20:34:00,32.7,28.1,29.77,East,90,0.0,0.0,83,0.00,CLR,,0.05,WeatherDisplay:10.37,2013-03-17 00:34:00,
2013-03-16 20:39:00,32.7,28.1,29.77,ESE,112,1.1,1.1,83,0.00,CLR,,0.05,WeatherDisplay:10.37,2013-03-17 00:39:00,
2013-03-16 20:44:00,32.7,28.1,29.77,East,90,0.0,0.2,83,0.00,CLR,,0.05,WeatherDisplay:10.37,2013-03-17 00:44:00,
2013-03-16 20:49:00,32.7,28.1,29.77,East,90,0.0,0.0,83,0.00,CLR,,0.05,WeatherDisplay:10.37,2013-03-17 00:49:00,
2013-03-16 20:54:00,32.7,28.1,29.78,SE,135,0.0,0.0,83,0.00,CLR,,0.05,WeatherDisplay:10.37,2013-03-17 00:54:00,
2013-03-16 20:59:00,32.7,28.1,29.78,ESE,112,0.0,0.0,83,0.00,CLR,,0.05,WeatherDisplay:10.37,2013-03-17 00:59:00,
2013-03-16 21:04:00,32.7,28.1,29.78,ENE,68,0.5,0.5,83,0.00,CLR,,0.05,WeatherDisplay:10.37,2013-03-17 01:04:00,
2013-03-16 21:09:00,32.7,28.1,29.78,North,0,0.0,0.0,83,0.00,CLR,,0.05,WeatherDisplay:10.37,2013-03-17 01:09:00,
2013-03-16 21:14:00,32.7,28.1,29.78,NNE,22,0.0,0.0,83,0.00,CLR,,0.05,WeatherDisplay:10.37,2013-03-17 01:14:00,
2013-03-16 21:19:00,32.7,28.1,29.79,ESE,112,0.2,0.2,83,0.00,CLR,,0.05,WeatherDisplay:10.37,2013-03-17 01:19:00,
2013-03-16 21:24:00,32.7,28.1,29.79,ESE,112,0.0,0.0,83,0.00,CLR,,0.05,WeatherDisplay:10.37,2013-03-17 01:24:00,
2013-03-16 21:29:00,32.7,28.1,29.79,East,90,0.5,0.5,83,0.00,CLR,,0.05,WeatherDisplay:10.37,2013-03-17 01:29:00,
2013-03-16 21:34:00,32.7,27.8,29.79,East,90,0.2,0.2,82,0.00,CLR,,0.05,WeatherDisplay:10.37,2013-03-17 01:34:00,
2013-03-16 21:39:00,32.7,28.1,29.80,WNW,292,0.7,0.7,83,0.00,CLR,,0.05,WeatherDisplay:10.37,2013-03-17 01:39:00,
2013-03-16 21:44:00,32.7,28.1,29.80,ESE,112,1.1,0.0,83,0.00,CLR,,0.05,WeatherDisplay:10.37,2013-03-17 01:44:00,
2013-03-16 21:49:00,32.7,27.8,29.80,North,0,0.0,0.0,82,0.00,CLR,,0.05,WeatherDisplay:10.37,2013-03-17 01:49:00,
2013-03-16 21:54:00,32.7,27.8,29.80,West,270,0.0,0.0,82,0.00,CLR,,0.05,WeatherDisplay:10.37,2013-03-17 01:54:00,
2013-03-16 21:59:00,32.7,27.8,29.79,WSW,248,0.2,0.2,82,0.00,CLR,,0.05,WeatherDisplay:10.37,2013-03-17 01:59:00,
2013-03-16 22:04:00,32.7,27.8,29.79,ENE,68,0.0,0.0,82,0.00,CLR,,0.05,WeatherDisplay:10.37,2013-03-17 02:04:00,
2013-03-16 22:09:00,32.7,27.5,29.80,East,90,0.0,0.0,81,0.00,CLR,,0.05,WeatherDisplay:10.37,2013-03-17 02:09:00,
2013-03-16 22:14:00,32.9,28.0,29.80,East,90,0.7,0.7,82,0.00,CLR,,0.05,WeatherDisplay:10.37,2013-03-17 02:14:00,
2013-03-16 22:19:00,32.9,27.7,29.80,East,90,0.0,0.0,81,0.00,CLR,,0.05,WeatherDisplay:10.37,2013-03-17 02:19:00,
2013-03-16 22:24:00,32.9,27.7,29.80,East,90,0.0,0.0,81,0.00,CLR,,0.05,WeatherDisplay:10.37,2013-03-17 02:24:00,
2013-03-16 22:29:00,32.9,28.0,29.80,WSW,248,0.0,0.0,82,0.00,CLR,,0.05,WeatherDisplay:10.37,2013-03-17 02:29:00,
2013-03-16 22:34:00,32.9,28.0,29.81,North,0,0.0,0.0,82,0.00,CLR,,0.05,WeatherDisplay:10.37,2013-03-17 02:34:00,
2013-03-16 22:39:00,33.1,28.2,29.81,NNW,338,0.5,0.5,82,0.00,CLR,,0.05,WeatherDisplay:10.37,2013-03-17 02:39:00,
2013-03-16 22:44:00,33.1,28.5,29.81,WSW,248,0.2,0.2,83,0.00,CLR,,0.05,WeatherDisplay:10.37,2013-03-17 02:44:00,
2013-03-16 22:49:00,33.1,28.2,29.81,WNW,292,0.5,0.5,82,0.00,CLR,,0.05,WeatherDisplay:10.37,2013-03-17 02:49:00,
2013-03-16 22:54:00,33.1,28.5,29.82,North,0,0.0,0.0,83,0.00,CLR,,0.05,WeatherDisplay:10.37,2013-03-17 02:54:00,
2013-03-16 22:59:00,33.1,28.5,29.81,SSW,202,1.1,0.0,83,0.00,CLR,,0.05,WeatherDisplay:10.37,2013-03-17 02:59:00,
2013-03-16 23:04:00,33.1,28.2,29.81,West,270,0.0,0.0,82,0.00,CLR,,0.05,WeatherDisplay:10.37,2013-03-17 03:04:00,
2013-03-16 23:09:00,33.1,28.2,29.82,North,0,0.2,0.2,82,0.00,CLR,,0.05,WeatherDisplay:10.37,2013-03-17 03:09:00,
2013-03-16 23:14:00,33.1,28.2,29.82,WSW,248,0.0,0.5,82,0.00,CLR,,0.05,WeatherDisplay:10.37,2013-03-17 03:14:00,
2013-03-16 23:19:00,33.1,28.2,29.82,West,270,0.2,0.2,82,0.00,CLR,,0.05,WeatherDisplay:10.37,2013-03-17 03:19:00,
2013-03-16 23:24:00,33.1,28.2,29.82,North,0,0.5,0.5,82,0.00,CLR,,0.05,WeatherDisplay:10.37,2013-03-17 03:24:00,
2013-03-16 23:29:00,33.1,28.2,29.82,WSW,248,0.0,0.0,82,0.00,CLR,,0.05,WeatherDisplay:10.37,2013-03-17 03:29:00,
2013-03-16 23:34:00,33.1,28.2,29.82,West,270,0.0,0.0,82,0.00,CLR,,0.05,WeatherDisplay:10.37,2013-03-17 03:34:00,
2013-03-16 23:39:00,33.1,28.2,29.82,WSW,248,0.0,0.0,82,0.00,CLR,,0.05,WeatherDisplay:10.37,2013-03-17 03:39:00,
2013-03-16 23:44:00,33.1,28.2,29.82,West,270,0.2,0.2,82,0.00,CLR,,0.05,WeatherDisplay:10.37,2013-03-17 03:44:00,
2013-03-16 23:49:00,33.3,28.4,29.82,WNW,292,0.0,1.1,82,0.00,CLR,,0.05,WeatherDisplay:10.37,2013-03-17 03:49:00,
2013-03-16 23:54:00,33.3,28.7,29.83,WSW,248,0.0,0.0,83,0.00,CLR,,0.05,WeatherDisplay:10.37,2013-03-17 03:54:00,
2013-03-16 23:59:00,33.3,28.7,29.82,NE,45,0.0,0.0,83,0.00,CLR,,0.05,WeatherDisplay:10.37,2013-03-17 03:59:00,